User: anonymous   Login
Location: Colonial Hills
(40.5656°N, 77.6119°W)
Time: 15:14:28
(UTC+00:00)
Language:

X-37B - Orbit

View from above orbital plane
View from above orbital plane
View from above satellite
View from above satellite

Ground track
Ground track

The orbit data is extracted from the following two-line orbital elements,

1 45606U 20029A   21002.72752162 0.00000000  00000-0  00000-0 0    04
2 45606  45.0460  83.1495 0004556 184.6585 175.3411 15.60157663    01
Epoch (UTC): 02 January 2021 17:27:37
Eccentricity: 0.0004556
inclination: 45.0460°
perigee height: 384 km
apogee height: 390 km
right ascension of ascending node: 83.1495°
argument of perigee: 184.6585°
revolutions per day: 15.60157663
mean anomaly at epoch: 175.3411°
orbit number at epoch: 0

The dashed part of the orbit path shows where the satellite is in the earth's shadow,  

DLR